Total_Precipitation_Accumulation
2.21 2.25 2.22 2.24 2.03 2.19 2.54 2.64 2.50 2.70 2.77 2.57 2.34 2.08 1.95 1.80 1.68 1.70 1.81 1.71 1.57 1.62 1.89 2.00 1.84 1.70 1.56 1.38 1.22 1.14 1.10 1.01 0.97 0.84 0.70 0.67 0.76 0.73 0.62 0.56 0.50 0.43 0.41
2.59 2.68 2.52 2.48 2.30 2.29 2.52 2.65 2.65 3.18 3.12 2.96 2.47 2.18 2.09 2.02 1.85 1.86 1.94 2.02 1.72 1.55 1.68 1.99 2.13 2.06 1.92 1.70 1.50 1.35 1.22 1.13 1.03 0.80 0.67 0.62 0.71 0.78 0.73 0.68 0.58 0.46 0.36
2.66 2.77 2.76 2.63 2.52 2.45 2.64 2.70 2.89 3.16 2.91 2.78 2.49 2.33 2.20 2.07 1.86 1.85 2.05 2.25 2.02 1.73 1.60 1.73 2.05 2.20 2.21 2.17 2.03 1.74 1.43 1.22 1.10 0.88 0.70 0.64 0.68 0.77 0.76 0.75 0.71 0.54 0.38
2.66 2.81 2.63 2.50 2.70 2.77 2.89 3.09 3.17 3.19 3.06 2.96 2.73 2.36 2.19 2.15 1.72 1.68 1.75 1.86 2.01 1.74 1.84 1.96 2.14 2.21 2.35 2.47 2.47 2.39 2.04 1.58 1.31 1.10 0.90 0.78 0.79 0.81 0.76 0.73 0.71 0.57 0.43
2.51 2.72 2.61 2.68 2.82 2.92 2.98 2.74 3.17 3.18 3.18 3.07 2.52 2.27 1.99 1.89 1.74 1.48 1.46 1.40 1.55 1.59 1.68 1.78 1.96 1.97 2.27 2.65 2.82 2.90 2.76 2.29 1.80 1.49 1.35 1.17 1.06 0.95 0.83 0.77 0.72 0.63 0.50
2.64 2.85 2.72 2.78 2.89 3.04 3.07 3.05 3.26 3.22 3.04 3.01 2.34 2.12 1.88 1.53 1.52 1.48 1.28 1.27 1.34 1.25 1.34 1.56 1.93 1.66 1.99 2.38 2.59 2.93 3.18 3.01 2.52 2.08 1.91 1.75 1.57 1.31 1.04 0.94 0.88 0.81 0.69
2.81 3.07 2.91 3.08 3.05 2.91 2.92 3.06 3.26 3.08 2.85 2.92 2.83 2.26 1.69 1.35 1.36 1.29 1.33 1.40 1.30 1.31 1.46 1.79 1.96 1.86 1.72 1.77 1.81 2.17 2.82 3.28 3.21 2.75 2.38 2.12 2.03 1.88 1.44 1.27 1.18 1.08 0.96
2.76 2.71 2.89 2.77 2.82 2.97 2.94 2.96 3.17 2.99 2.60 2.71 2.87 2.75 2.07 1.77 1.39 1.05 1.27 1.32 1.33 1.52 1.57 1.65 1.95 2.18 2.03 2.17 1.70 1.63 2.25 2.98 3.39 3.37 2.93 2.57 2.38 2.23 1.88 1.73 1.51 1.27 1.14
2.38 2.46 2.52 2.61 2.89 2.89 2.91 2.99 2.96 2.82 2.52 2.47 2.60 2.77 2.29 1.91 1.54 1.10 1.03 1.20 1.49 1.67 1.59 1.73 1.85 2.05 2.15 2.41 2.35 2.01 1.89 2.07 2.70 3.38 3.40 3.05 2.61 2.27 2.24 2.28 2.07 1.64 1.34
2.33 2.31 2.34 2.41 2.49 2.48 2.58 2.35 2.45 2.62 2.69 2.47 2.52 2.45 2.29 2.13 2.03 1.59 1.24 1.17 1.39 1.50 1.61 1.60 1.64 1.77 2.07 2.50 2.65 2.24 1.89 1.67 1.89 2.72 3.33 3.40 3.01 2.59 2.50 2.58 2.72 2.41 1.84
2.35 2.26 2.25 2.26 2.17 2.12 2.23 2.21 2.37 2.39 2.38 2.35 2.38 2.44 2.43 2.33 2.18 2.07 1.77 1.58 1.50 1.26 1.32 1.45 1.53 1.64 1.89 2.25 2.44 2.23 2.16 1.89 1.79 1.97 2.41 2.85 2.98 2.86 2.70 2.80 3.13 3.23 2.85
2.22 2.14 2.11 2.13 2.03 2.02 2.09 2.16 2.24 2.18 2.20 2.28 2.30 2.31 2.39 2.29 2.29 2.35 2.01 1.85 1.71 1.32 1.28 1.25 1.32 1.45 1.73 1.94 1.83 1.91 1.87 1.72 1.61 1.64 1.78 2.12 2.40 2.55 2.65 2.89 3.30 3.68 3.71
1.85 1.87 1.80 1.88 1.88 1.92 1.95 2.03 2.08 2.07 2.17 2.26 2.21 2.23 2.21 2.13 2.20 2.29 2.23 1.94 1.77 1.49 1.49 1.39 1.30 1.40 1.42 1.71 1.71 1.56 1.36 1.32 1.26 1.28 1.29 1.45 1.69 1.88 2.10 2.38 2.79 3.20 3.50
1.55 1.68 1.81 1.86 1.85 1.86 1.87 2.04 1.92 1.91 2.07 2.12 2.08 2.37 2.22 2.02 2.10 2.19 2.31 2.38 2.11 1.75 1.73 1.59 1.45 1.39 1.41 1.48 1.47 1.39 1.24 1.17 1.08 1.04 1.02 1.03 1.09 1.23 1.41 1.65 1.94 2.17 2.41
1.57 1.65 1.73 1.83 1.86 1.95 2.01 2.06 1.92 2.03 2.24 2.14 2.21 2.39 2.26 2.14 2.15 2.14 2.31 2.53 2.50 2.17 1.84 1.68 1.57 1.40 1.40 1.37 1.40 1.36 1.30 1.20 1.05 0.97 0.93 0.89 0.88 0.91 0.99 1.13 1.31 1.48 1.59
1.59 1.53 1.55 1.61 1.62 1.68 1.82 1.93 1.87 1.99 2.21 2.16 2.13 2.21 2.19 2.16 2.34 2.30 2.35 2.49 2.61 2.49 1.97 1.75 1.67 1.40 1.51 1.24 1.28 1.26 1.26 1.22 1.04 0.92 0.88 0.86 0.85 0.86 0.87 0.92 1.01 1.14 1.28
1.57 1.51 1.48 1.46 1.44 1.41 1.50 1.66 1.67 1.86 1.89 1.86 1.79 1.86 1.85 2.05 2.21 2.17 2.26 2.33 2.46 2.55 2.15 1.89 1.97 1.80 1.80 1.61 1.46 1.34 1.18 1.20 1.08 1.02 0.93 0.86 0.83 0.83 0.86 0.86 0.85 0.90 1.00
1.43 1.47 1.50 1.39 1.28 1.34 1.44 1.46 1.53 1.73 1.79 1.77 1.78 1.83 1.74 1.89 2.00 2.02 2.15 2.22 2.38 2.61 2.41 2.18 2.19 2.17 2.09 1.91 1.77 1.59 1.24 1.07 1.09 1.15 1.00 0.89 0.84 0.83 0.88 0.89 0.84 0.81 0.83
1.30 1.35 1.40 1.34 1.29 1.38 1.52 1.61 1.70 1.74 1.65 1.64 1.62 1.57 1.55 1.70 1.74 1.86 2.00 2.00 2.09 2.39 2.45 2.21 2.14 2.39 2.29 2.08 2.12 1.82 1.60 1.54 1.14 1.12 1.05 0.90 0.84 0.81 0.84 0.90 0.91 0.86 0.83
1.32 1.39 1.42 1.50 1.54 1.53 1.49 1.50 1.56 1.66 1.66 1.51 1.35 1.25 1.28 1.43 1.49 1.60 1.65 1.75 1.88 2.06 2.25 2.22 2.13 2.30 2.36 2.24 2.41 2.19 1.99 1.82 1.51 1.24 1.23 1.03 0.94 0.91 0.89 0.88 0.90 0.93 0.94
1.27 1.41 1.56 1.66 1.68 1.58 1.40 1.42 1.49 1.42 1.45 1.39 1.25 1.11 1.02 1.04 1.10 1.24 1.23 1.43 1.67 1.84 1.92 2.05 2.10 2.20 2.41 2.48 2.33 2.31 2.19 2.02 1.88 1.74 1.72 1.33 1.06 0.95 0.94 0.94 0.96 0.99 1.03
1.26 1.40 1.45 1.50 1.48 1.30 1.33 1.22 1.19 1.22 1.26 1.27 1.28 1.24 1.09 0.98 0.95 0.98 1.01 1.07 1.22 1.38 1.59 1.83 1.91 2.00 2.22 2.47 2.50 2.54 2.47 2.27 2.06 1.91 2.05 2.01 1.67 1.41 1.21 1.00 0.99 1.02 1.10
1.32 1.33 1.31 1.33 1.35 1.44 1.31 1.11 1.05 1.06 1.18 1.23 1.27 1.25 1.04 0.92 0.97 0.94 0.99 1.00 1.05 1.08 1.15 1.38 1.53 1.57 1.80 2.11 2.45 2.51 2.59 2.45 2.22 2.19 2.33 2.40 2.47 2.24 1.68 1.33 1.26 1.11 1.14
1.37 1.35 1.23 1.22 1.25 1.26 1.23 1.11 1.09 1.01 1.06 1.13 1.19 1.22 1.22 1.16 1.07 1.09 1.11 1.07 0.98 0.98 1.00 0.97 1.03 1.23 1.40 1.65 2.02 2.22 2.53 2.71 2.56 2.48 2.56 2.63 2.65 2.86 2.37 1.83 1.65 1.40 1.33
1.37 1.42 1.32 1.27 1.28 1.27 1.24 1.09 1.05 0.99 1.07 1.15 1.22 1.22 1.20 1.14 1.15 1.12 1.12 1.12 1.02 0.95 0.93 0.92 0.90 1.00 1.18 1.32 1.62 1.97 2.26 2.45 2.54 2.62 2.69 2.75 2.67 2.81 3.10 2.64 1.96 1.60 1.38
1.54 1.57 1.51 1.45 1.48 1.51 1.53 1.33 1.22 1.08 1.13 1.20 1.32 1.30 1.17 1.04 1.11 1.05 0.96 1.02 1.01 1.02 1.07 1.03 1.01 1.03 1.10 1.25 1.50 1.77 2.03 2.28 2.32 2.41 2.28 2.26 2.28 2.42 2.84 3.05 2.68 2.07 1.61